Quakertown, PA

4:24 PM EDT on April 28, 2017 (GMT -0400)
Quakertown

Weather History for KUKT - October, 2012

Change the Weather History Date:

Monday, October 29, 2012

  Actual Average (KABE) Record (KABE)
Temperature  
Mean Temperature 54 °F -  
Max Temperature 57 °F 59 °F 76 °F (1989)
Min Temperature 50 °F 37 °F 22 °F (1940)
Degree Days  
Heating Degree Days 12    
Growing Degree Days 4 (Base 50)    
Moisture  
Dew Point 49 °F    
Average Humidity 86    
Maximum Humidity 100    
Minimum Humidity 72    
Precipitation  
Precipitation 1.00 in - - ()
Sea Level Pressure  
Sea Level Pressure 29.23 in    
Wind  
Wind Speed 15 mph (NNE)    
Max Wind Speed 32 mph    
Max Gust Speed 52 mph    
Visibility 5 miles    
Events      
Averages and records for this station are not official NWS values.
T = Trace of Precipitation, MM = Missing Value Source: NWS Daily Summary

Daily Weather History Graph

Daily Weather History Graph

Search for Another Location

Airport or City:

Trip Planner

Search our weather history database for the weather conditions in past years. The results will help you decide how hot, cold, wet, or windy it might be!

Date:

Astronomy

Oct. 29, 2012 Rise Set
Actual Time 7:28 AM EDT 6:01 PM EDT
Civil Twilight 7:00 AM EDT 6:29 PM EDT
Nautical Twilight 6:28 AM EDT 7:01 PM EDT
Astronomical Twilight 5:56 AM EDT 7:33 PM EDT
Moon 5:51 PM EDT (10/29) 7:16 AM EDT (10/29)
Length of Visible Light 11h 29m
Length of Day
10h 32m
Full, 100% of the Moon is Illuminated
Oct 29
Full
Oct 29
Full
Nov 6
Last Quarter
Nov 13
New
Nov 20
First Quarter

Hourly Weather History & Observations

Time (EDT) Temp. Dew Point Humidity Pressure Visibility Wind Dir Wind Speed Gust Speed Precip Events Conditions
12:15 AM 53.6 °F 48.2 °F 82% 29.65 in 10.0 mi NNE 10.4 mph 16.1 mph N/A   Overcast
12:35 AM 53.6 °F 48.2 °F 82% 29.65 in 10.0 mi NNE 8.1 mph - N/A   Overcast
12:55 AM 53.6 °F 46.4 °F 77% 29.64 in 10.0 mi NNE 9.2 mph - N/A   Overcast
1:15 AM 53.6 °F 46.4 °F 77% 29.64 in 10.0 mi NE 6.9 mph - N/A   Overcast
1:35 AM 53.6 °F 46.4 °F 77% 29.63 in 10.0 mi NE 10.4 mph 17.3 mph N/A   Overcast
1:55 AM 53.6 °F 46.4 °F 77% 29.61 in 10.0 mi NNE 10.4 mph 17.3 mph N/A   Overcast
2:15 AM 53.6 °F 46.4 °F 77% 29.59 in 10.0 mi North 11.5 mph 17.3 mph N/A   Overcast
2:35 AM 53.6 °F 46.4 °F 77% 29.60 in 10.0 mi NNE 13.8 mph 20.7 mph N/A   Overcast
2:55 AM 53.6 °F 44.6 °F 72% 29.59 in 10.0 mi NNE 12.7 mph 19.6 mph N/A   Overcast
3:15 AM 53.6 °F 44.6 °F 72% 29.57 in 10.0 mi NNE 11.5 mph 23.0 mph N/A   Overcast
3:35 AM 53.6 °F 44.6 °F 72% 29.56 in 10.0 mi NNE 13.8 mph 23.0 mph N/A   Overcast
3:55 AM 53.6 °F 44.6 °F 72% 29.55 in 10.0 mi NNE 12.7 mph 24.2 mph N/A   Overcast
4:15 AM 53.6 °F 44.6 °F 72% 29.54 in 10.0 mi NNE 11.5 mph 20.7 mph N/A   Overcast
4:35 AM 53.6 °F 44.6 °F 72% 29.52 in 10.0 mi NNE 11.5 mph 20.7 mph N/A   Overcast
4:55 AM 53.6 °F 44.6 °F 72% 29.49 in 10.0 mi North 15.0 mph 20.7 mph N/A   Overcast
5:15 AM 53.6 °F 46.4 °F 77% 29.51 in 10.0 mi NNE 10.4 mph 18.4 mph N/A   Overcast
5:35 AM 51.8 °F 46.4 °F 82% 29.48 in 6.0 mi NNE 15.0 mph 21.9 mph N/A   Overcast
5:55 AM 51.8 °F 46.4 °F 82% 29.47 in 10.0 mi North 13.8 mph 20.7 mph N/A   Overcast
6:15 AM 53.6 °F 46.4 °F 77% 29.45 in 10.0 mi North 16.1 mph 24.2 mph N/A   Overcast
7:15 AM 53.6 °F 46.4 °F 77% 29.43 in 10.0 mi North 16.1 mph 29.9 mph N/A   Overcast
7:35 AM 53.6 °F 46.4 °F 77% 29.42 in 10.0 mi NNE 17.3 mph 27.6 mph N/A   Overcast
7:55 AM 53.6 °F 46.4 °F 77% 29.40 in 8.0 mi NNE 17.3 mph 28.8 mph N/A   Overcast
8:15 AM 51.8 °F 48.2 °F 88% 29.39 in 3.0 mi North 18.4 mph 32.2 mph 0.01 in   Overcast
8:35 AM 51.8 °F 48.2 °F 88% 29.38 in 3.0 mi North 16.1 mph 31.1 mph 0.02 in   Overcast
8:55 AM 51.8 °F 48.2 °F 88% 29.36 in 3.0 mi North 15.0 mph 27.6 mph 0.04 in   Overcast
9:15 AM 51.8 °F 48.2 °F 88% 29.33 in 2.5 mi North 13.8 mph 26.5 mph 0.03 in   Overcast
9:35 AM 51.8 °F 48.2 °F 88% 29.31 in 1.5 mi North 17.3 mph 25.3 mph 0.07 in   Overcast
9:55 AM 50.0 °F 50.0 °F 100% 29.28 in 1.5 mi North 16.1 mph 24.2 mph 0.16 in   Overcast
10:15 AM 50.0 °F 48.2 °F 94% 29.24 in 1.2 mi NNW 18.4 mph 26.5 mph 0.06 in   Overcast
10:35 AM 50.0 °F 48.2 °F 94% 29.23 in 1.0 mi North 18.4 mph 32.2 mph 0.10 in   Overcast
10:55 AM 50.0 °F 50.0 °F 100% 29.21 in 1.0 mi North 16.1 mph 31.1 mph 0.14 in   Overcast
11:35 AM 51.8 °F 50.0 °F 94% 29.16 in 1.0 mi North 19.6 mph 28.8 mph 0.06 in   Overcast
11:55 AM 51.8 °F 50.0 °F 94% 29.13 in 1.0 mi North 17.3 mph 31.1 mph 0.09 in   Overcast
12:15 PM 51.8 °F 50.0 °F 94% 29.11 in 1.0 mi North 21.9 mph 33.4 mph 0.02 in   Overcast
12:35 PM 51.8 °F 50.0 °F 94% 29.09 in 1.0 mi NNE 18.4 mph 28.8 mph 0.07 in   Overcast
12:55 PM 53.6 °F 50.0 °F 88% 29.04 in 2.0 mi North 19.6 mph 28.8 mph 0.09 in   Overcast
1:35 PM 53.6 °F 50.0 °F 88% 28.97 in 1.2 mi North 23.0 mph 35.7 mph 0.03 in   Overcast
1:55 PM 53.6 °F 51.8 °F 94% 28.93 in 1.0 mi North 21.9 mph 43.7 mph 0.07 in   Overcast
2:15 PM 53.6 °F 51.8 °F 94% 28.88 in 1.8 mi NNW 31.1 mph 43.7 mph 0.02 in   Overcast
2:35 PM 53.6 °F 51.8 °F 94% 28.87 in 1.5 mi North 20.7 mph 35.7 mph 0.06 in   Overcast
2:55 PM 53.6 °F 51.8 °F 94% 28.84 in 1.0 mi North 21.9 mph 34.5 mph 0.14 in   Overcast
3:15 PM 53.6 °F 51.8 °F 94% 28.80 in 1.2 mi North 21.9 mph 34.5 mph 0.07 in   Overcast
3:35 PM 53.6 °F 51.8 °F 94% 28.77 in 1.5 mi North 23.0 mph 33.4 mph 0.18 in   Overcast
4:15 PM 55.4 °F 53.6 °F 94% 28.69 in 1.5 mi North 27.6 mph 35.7 mph 0.04 in   Overcast
4:35 PM 57.2 °F 53.6 °F 88% 28.65 in 1.8 mi North 23.0 mph 44.9 mph 0.07 in   Overcast
4:55 PM 57.2 °F 55.4 °F 94% 28.61 in 1.2 mi North 32.2 mph 51.8 mph 0.09 in   Overcast
5:15 PM 57.2 °F 55.4 °F 94% 28.58 in 2.0 mi NNE 20.7 mph 43.7 mph N/A   Overcast
5:35 PM 57.2 °F 55.4 °F 94% 28.55 in 2.5 mi NNE 25.3 mph 46.0 mph N/A   Unknown
5:50 PM 57.2 °F 55.4 °F 94% 28.53 in 2.5 mi NNE 28.8 mph 43.7 mph N/A   Overcast
6:15 PM 57.2 °F 55.4 °F 94% 28.49 in 2.5 mi NNE 26.5 mph 46.0 mph N/A   Mostly Cloudy